Regional Weather Roundup
Issued by NWS

Home | Current Version | Previous Version | Graphics & Text | Print | Product List | Glossary On
Versions: 1 2 3 4 5 6 7 8 9 10 11 12 13 14 15 16 17 18 19 20 21 22 23 24 25 26 27 28 29 30 31 32 33 34 35 36 37 38 39 40 41 42 43 44 45 46 47 48 49 50
000
ASUS45 KBOI 300510
RWRID

IDAHO REGIONAL WEATHER ROUNDUP
NATIONAL WEATHER SERVICE BOISE ID
1100 PM MDT MON JUN 29 2015

NOTE: "FAIR" INDICATES FEW OR NO CLOUDS BELOW 12000 FEET
WITH NO SIGNIFICANT WEATHER AND/OR OBSTRUCTIONS TO VISIBILITY

IDZ012-014-300600-
SOUTHWEST IDAHO


CITY           SKY/WX    TMP DP  RH WIND       PRES   REMARKS
BOISE          MOCLDY    89  54  30 CALM      29.92R
CALDWELL       MOCLDY    93  52  24 SW7       29.91R HX  90
MOUNTAIN HOME  LGT RAIN  88  59  37 S18G25    29.93R
$$

IDZ016-017-300600-
SOUTHCENTRAL IDAHO


CITY           SKY/WX    TMP DP  RH WIND       PRES   REMARKS
BURLEY         CLOUDY    89  42  19 W17       30.06R
JEROME         CLOUDY    83  49  30 S15       30.07R
TWIN FALLS     CLOUDY    86  46  24 S10       30.03R
$$

IDZ019>023-300600-
SOUTHEAST IDAHO


CITY           SKY/WX    TMP DP  RH WIND       PRES   REMARKS
IDAHO FALLS    CLOUDY    72  54  53 NE10      30.13R
POCATELLO      PTCLDY    71  64  78 W17       30.13R
REXBURG        CLOUDY    71  55  56 N9        30.17R
$$

IDZ006-010-011-018-031-032-300600-
CENTRAL IDAHO MOUNTAINS


CITY           SKY/WX    TMP DP  RH WIND       PRES   REMARKS
MCCALL         PTCLDY    78  55  44 N9        30.11R
HAILEY         PTCLDY    75  52  43 E8        30.11S
STANLEY          N/A     69  48  47 S5        30.24R
SALMON         PTCLDY    68  61  77 NE5       30.07R
CHALLIS        MOCLDY    75  55  49 NW8       30.12R
$$

IDZ002-004-006-007-026-300600-
NORTHERN IDAHO


CITY           SKY/WX    TMP DP  RH WIND       PRES   REMARKS
LEWISTON       CLEAR     84  56  38 S5        29.89R
LOWELL           N/A     76  66  71 N3        29.91R
COEUR D`ALENE  PTCLDY    75  57  53 CALM      29.93R
MULLAN PASS    CLEAR     67  52  58 W5        30.20R
$$



USA.gov is the U.S. government's official web portal to all federal, state and local government web resources and services.